RH
50 30 13 13 38 51 53 41 14 21 18 15 13 12 12 11 10 10 10 10 9 8 7 7 6 6 8 8 12 10 22 26 22 24 23 25 23 18 15 14 15 12 13 18 20 16 14
62 56 42 24 14 30 48 52 42 15 20 18 16 14 12 12 11 9 9 9 8 8 7 6 6 6 7 8 7 8 16 29 34 28 28 26 27 21 14 13 13 13 14 20 22 22 18
29 43 56 49 44 14 23 43 46 46 22 18 18 17 15 14 13 11 9 8 8 7 6 5 5 6 6 6 8 9 15 28 27 36 35 39 38 30 24 21 19 16 23 26 25 27 27
19 16 22 47 49 52 18 15 40 42 47 33 14 18 18 17 15 14 11 9 8 7 6 6 5 5 6 7 7 9 11 28 26 23 38 50 53 48 46 39 34 31 29 24 24 24 26
9 6 6 9 27 46 51 27 15 32 36 43 43 16 16 18 18 17 18 17 13 10 8 7 7 8 7 10 11 13 15 24 27 29 32 41 57 55 51 43 37 34 30 26 26 30 29
7 7 7 5 5 7 31 47 32 16 21 37 33 46 27 11 17 18 19 20 19 17 14 12 10 10 10 12 13 16 19 24 25 31 38 42 39 44 37 38 26 30 32 39 35 42 39
5 5 6 7 6 5 6 8 35 39 20 18 31 35 44 40 21 10 16 19 20 19 18 15 13 14 12 10 12 15 22 27 30 31 46 58 43 32 46 61 60 50 41 37 44 47 49
4 3 2 2 3 5 4 5 6 7 26 34 26 19 34 40 44 36 14 7 16 18 18 18 15 15 14 12 16 25 26 28 33 36 36 44 47 56 65 63 56 49 40 35 37 49 47
4 3 2 2 2 2 3 3 3 4 5 10 30 29 17 26 39 45 40 32 11 8 17 17 17 19 22 17 18 29 30 31 43 46 57 59 57 60 61 62 56 48 43 46 45 60 44
3 2 2 2 2 2 2 2 2 3 5 4 6 14 14 14 18 41 49 43 29 9 9 13 18 26 26 25 21 29 31 42 44 65 70 57 54 55 56 54 68 43 64 70 70 67 48
2 2 2 2 2 2 2 2 2 7 100 63 13 4 8 10 14 28 46 47 25 8 10 10 16 31 32 26 25 29 41 67 73 77 74 66 66 70 52 73 94 62 93 81 78 77 67
2 2 2 3 3 3 3 3 2 11 76 94 100 88 8 4 11 26 43 47 34 42 32 18 24 35 31 28 26 36 75 82 64 50 48 72 80 84 88 92 80 95 98 97 82 85 61
2 4 4 3 3 2 2 2 3 3 93 100 100 96 53 7 36 29 40 44 37 52 33 24 31 31 27 31 48 78 78 42 36 37 47 85 86 82 100 100 100 100 100 100 97 77 54
5 7 4 3 2 3 9 7 3 8 100 100 98 98 100 52 41 42 43 35 44 46 20 21 28 24 31 63 88 66 45 58 52 46 79 96 78 100 99 99 100 100 100 99 97 82 67
8 6 3 1 4 38 80 39 3 27 100 100 100 93 79 60 61 59 36 33 50 38 21 24 26 28 54 99 79 53 75 79 71 57 91 81 100 100 98 100 100 97 98 90 100 98 85
9 4 2 4 57 96 100 58 6 64 89 100 78 99 89 89 67 53 35 49 56 32 25 30 29 35 96 77 43 55 83 77 87 71 98 88 64 66 83 78 80 85 94 100 95 84 70
9 3 1 11 84 72 84 19 4 44 100 99 100 94 98 93 74 47 42 70 50 34 26 25 38 76 96 38 38 33 55 69 81 57 44 62 54 66 80 83 86 73 77 77 77 66 68
8 2 1 18 43 48 92 20 98 50 100 100 100 100 97 85 57 45 82 60 26 20 23 29 48 98 55 43 59 30 25 35 46 36 54 82 93 96 100 100 98 93 67 63 69 48 56
7 2 1 2 14 14 100 77 76 100 100 97 93 97 93 75 53 53 92 29 19 22 24 33 83 91 36 54 66 60 30 41 54 68 89 95 97 100 99 73 69 61 47 56 66 48 85
6 2 0 0 67 100 88 99 100 100 100 100 100 92 98 65 67 90 81 23 24 26 30 41 98 78 31 49 67 91 96 96 88 98 98 100 100 100 100 99 99 60 30 37 48 33 98
5 2 0 0 94 67 97 100 100 100 92 98 98 99 88 57 60 89 45 26 28 26 38 61 100 76 30 40 46 56 78 94 98 100 99 100 100 100 100 100 100 100 99 90 84 57 93
4 4 2 5 80 79 99 78 90 83 97 100 100 96 100 93 75 91 31 33 41 48 42 82 100 88 40 36 40 47 78 98 100 99 99 99 100 99 91 94 89 68 72 91 96 96 96
3 13 7 28 62 89 100 89 91 100 100 100 100 100 99 88 98 66 38 37 36 38 44 90 100 95 68 36 33 43 73 77 92 96 100 100 98 98 95 97 96 95 97 97 98 98 97
2 20 18 67 74 95 88 89 100 100 100 98 100 95 100 100 92 58 44 31 48 58 58 88 99 100 80 33 35 44 61 67 63 96 100 99 97 96 99 98 97 84 97 96 98 99 99
3 13 39 49 87 99 92 84 96 100 100 100 99 77 66 86 93 52 36 37 50 52 40 82 100 98 88 54 31 29 33 38 53 74 88 89 98 89 86 79 73 71 91 96 71 86 91
3 6 44 66 61 98 88 98 93 100 100 90 96 100 91 95 56 39 35 41 43 53 43 92 96 100 95 71 56 37 32 28 44 61 64 77 72 79 71 72 69 78 79 79 81 81 75
3 4 33 49 50 56 100 100 100 100 100 98 100 97 91 92 88 40 44 42 50 54 70 98 97 100 100 85 77 51 52 36 34 46 46 49 53 58 58 68 72 80 86 85 88 86 71
2 4 23 43 80 85 86 100 100 100 100 98 90 98 100 84 46 51 42 46 63 72 99 98 94 97 99 93 95 67 55 56 44 44 38 38 40 51 56 75 71 75 70 76 74 75 68
3 3 15 52 85 94 95 99 100 91 98 100 95 100 88 47 44 76 44 75 69 76 97 94 98 99 100 97 79 67 67 74 79 71 63 61 55 68 68 68 68 70 70 75 80 80 83
Wind_Speed
46 38 33 29 32 42 36 31 32 34 34 32 31 30 29 29 29 27 28 29 29 32 31 32 29 28 28 29 30 29 23 27 34 35 37 38 40 43 42 43 41 40 39 39 36 34 36
42 44 41 34 31 33 44 40 34 34 37 37 35 34 33 32 31 30 29 29 29 29 31 31 31 29 31 31 34 33 30 27 31 36 38 40 39 41 44 43 45 43 42 43 43 39 39
39 36 43 43 39 35 33 42 43 38 37 39 40 38 37 35 33 33 33 31 32 32 31 32 33 32 31 34 34 33 34 30 29 35 40 39 41 40 39 41 43 42 41 40 43 43 41
45 41 38 40 44 41 38 36 39 45 43 40 42 43 41 39 37 35 34 33 31 33 33 32 32 33 30 32 33 33 36 33 33 35 38 42 42 42 41 41 42 43 43 44 43 45 46
47 45 44 42 43 45 43 42 41 39 46 46 43 43 44 43 41 39 35 34 31 31 32 32 32 31 29 31 33 35 36 36 36 37 39 43 45 44 45 45 46 46 45 45 45 46 47
49 49 49 47 45 46 47 48 46 46 41 46 49 46 44 44 44 43 41 37 35 34 33 34 33 33 32 31 32 33 34 38 39 39 39 39 47 49 49 46 46 46 46 45 45 43 46
53 53 54 55 52 51 50 51 51 49 50 46 46 50 48 46 44 45 44 42 39 37 37 37 35 33 30 30 32 35 36 39 41 39 38 41 46 48 45 45 46 47 46 45 47 49 50
60 59 56 57 59 59 58 55 54 54 54 54 51 48 50 51 49 45 42 42 42 40 38 37 36 35 36 35 35 38 40 41 41 40 42 46 45 43 47 49 49 49 48 47 48 50 51
69 68 65 61 57 59 60 61 58 58 57 58 57 53 50 49 52 47 45 42 41 41 41 37 38 36 38 40 38 36 39 43 42 42 41 44 44 47 50 51 52 52 52 50 51 48 53
75 73 69 65 62 57 57 57 59 55 54 57 59 58 55 52 47 48 46 45 42 39 42 38 40 39 36 37 41 43 43 43 45 41 45 49 47 47 48 50 49 49 46 44 45 47 51
74 68 63 61 58 54 49 50 53 49 43 52 50 59 59 53 49 44 47 43 38 35 42 42 42 39 38 41 43 43 45 45 43 41 44 44 43 46 51 43 42 44 40 43 45 48 50
67 64 56 50 48 46 43 42 48 52 54 42 43 43 59 56 49 46 44 41 40 40 44 42 40 40 41 42 44 44 46 45 40 38 41 43 46 47 46 45 46 43 41 45 46 47 54
62 54 51 44 39 37 33 35 44 46 47 44 41 39 47 55 49 47 43 40 41 40 38 38 38 38 40 42 43 44 42 35 34 34 37 37 37 39 40 39 42 44 45 39 44 52 58
54 53 46 36 29 25 24 31 41 46 52 48 29 35 40 49 50 44 41 40 41 38 36 38 37 36 38 40 39 38 37 33 30 31 27 32 31 35 35 34 37 40 42 47 40 51 50
52 53 40 26 18 18 18 23 34 54 53 43 39 40 35 43 44 42 41 39 33 34 35 34 32 35 35 34 36 37 33 28 24 22 20 21 32 32 34 34 33 35 43 35 42 33 43
54 49 33 14 7 21 17 20 32 52 51 44 33 39 36 38 41 41 41 34 33 34 34 30 30 31 29 30 28 29 21 20 22 19 24 25 25 25 28 31 36 38 35 41 43 42 38
53 43 26 12 12 21 17 24 40 62 49 46 38 46 43 37 41 41 36 30 32 32 28 27 26 25 25 21 18 15 9 7 8 6 11 13 21 23 27 26 26 37 40 42 44 46 37
51 38 23 12 15 20 22 33 36 59 54 44 49 43 28 33 39 39 33 30 30 27 24 23 22 20 16 16 12 4 9 10 6 9 9 13 19 26 20 28 20 26 36 38 49 44 30
49 33 18 8 8 23 28 32 50 52 49 49 47 41 34 34 38 35 29 28 26 24 22 21 17 18 10 12 11 7 3 14 14 16 14 15 8 2 10 15 20 28 41 44 42 41 34
46 27 13 5 27 23 37 40 35 44 49 47 42 42 43 39 37 31 29 26 24 23 21 18 16 16 7 7 6 5 8 8 12 10 8 13 1 8 11 14 20 13 30 38 42 45 38
43 25 9 15 27 33 37 40 30 43 44 43 43 36 40 38 31 28 29 27 24 23 19 18 18 14 5 3 1 2 2 4 5 5 7 7 15 17 10 3 15 24 21 32 31 45 28
39 18 5 28 34 40 38 44 46 43 42 31 52 35 29 26 29 28 29 24 23 22 21 21 18 13 9 8 7 4 3 4 14 15 14 16 22 16 17 19 18 16 22 42 37 25 17
33 5 12 31 35 35 41 46 44 39 40 32 36 39 30 27 24 29 27 26 26 21 22 21 17 12 11 15 9 8 9 0 6 15 26 27 23 19 6 9 11 9 19 18 14 19 35
28 3 20 37 35 36 46 32 36 39 38 40 36 35 36 28 27 28 25 27 26 18 23 24 21 14 18 16 11 14 12 7 3 10 16 18 28 21 19 16 15 17 15 19 26 19 18
23 14 27 40 36 45 45 34 30 38 35 36 30 31 32 27 32 30 27 25 21 21 22 21 18 19 22 20 19 18 18 11 5 5 8 13 20 18 17 16 15 18 18 22 22 19 20
22 20 35 37 42 47 35 36 34 39 33 33 35 26 27 27 30 28 26 21 21 20 22 22 17 20 24 23 18 19 15 15 12 10 8 11 11 11 9 12 13 13 11 13 15 14 11
21 15 40 40 46 43 40 37 32 35 32 33 32 31 34 27 28 29 23 22 21 17 19 19 13 21 28 25 19 17 15 14 18 20 14 10 7 7 8 7 8 10 11 13 14 13 15
21 13 46 46 52 52 41 41 36 34 28 30 27 24 32 33 29 26 23 22 19 20 12 13 14 19 29 24 21 20 11 8 14 17 19 17 14 11 7 4 7 9 10 11 10 12 13
22 11 45 53 59 57 46 42 32 34 35 31 27 27 30 32 29 28 24 19 16 20 13 15 13 22 25 24 19 20 16 10 10 15 13 14 14 12 12 13 10 10 10 13 14 12 13
Wind_Direction
283 279 279 278 271 257 261 265 259 249 245 245 244 245 250 253 253 252 254 253 255 257 260 264 264 270 272 272 269 266 266 263 263 264 258 253 251 248 247 247 249 252 256 256 252 246 244
283 275 274 273 271 267 258 258 260 255 249 246 246 247 246 251 255 255 254 255 255 260 262 267 270 269 272 272 274 273 273 269 260 260 259 256 251 250 249 251 251 255 259 256 251 248 245
297 296 271 272 270 268 268 258 256 256 254 249 246 247 248 249 252 256 257 256 259 258 264 265 269 274 276 277 277 277 274 270 268 258 260 257 252 251 251 252 252 253 254 253 251 249 249
301 297 288 279 271 269 264 266 256 253 253 252 249 247 247 250 250 252 255 258 259 261 261 265 272 277 280 282 283 280 277 276 275 271 257 254 252 249 247 246 248 249 248 249 248 249 248
300 299 293 285 275 269 265 259 260 253 250 249 250 249 248 247 250 251 253 257 259 262 265 265 270 279 283 283 282 280 278 275 274 274 268 258 252 249 248 249 248 248 248 247 247 249 248
299 295 290 287 281 274 265 258 252 255 252 248 247 248 248 248 248 250 253 254 259 263 267 271 272 278 282 284 282 280 277 275 272 271 271 266 258 255 252 252 252 253 253 252 252 249 251
303 298 291 285 280 275 268 262 258 251 251 251 247 244 246 247 248 249 252 255 256 259 264 271 274 279 282 280 283 284 281 275 272 271 272 267 260 256 260 257 251 248 246 246 247 248 245
308 304 297 288 279 272 266 261 257 253 249 247 248 247 242 243 245 247 250 254 256 258 261 267 272 279 284 283 286 286 281 277 275 275 271 270 269 264 257 255 254 253 252 250 249 246 244
311 306 299 291 279 271 264 258 254 252 249 244 245 245 243 243 242 243 246 251 254 257 260 265 269 275 281 286 287 284 285 284 281 277 274 269 266 262 260 259 259 258 256 250 249 242 245
312 305 299 292 284 273 264 253 249 245 246 244 241 240 241 242 243 243 244 247 252 257 258 258 263 274 282 286 288 287 286 282 281 275 268 268 269 267 263 259 254 255 251 245 240 238 239
313 307 298 290 283 276 264 249 240 236 222 236 241 236 236 237 237 239 241 245 249 255 259 259 265 274 281 286 290 289 288 282 279 272 268 268 261 257 255 251 246 247 240 240 235 234 231
312 306 301 294 286 274 266 245 231 220 215 221 226 234 230 229 232 235 238 241 244 251 258 263 270 276 285 291 291 290 286 283 280 275 271 263 257 253 252 248 246 238 230 232 229 226 232
316 312 309 301 287 271 258 240 225 217 193 203 210 234 227 224 226 228 232 234 241 249 257 259 270 281 289 291 291 290 287 282 280 278 274 265 255 257 252 247 241 232 223 222 225 222 228
320 320 315 303 285 265 244 232 215 201 191 192 196 224 224 219 220 223 225 228 240 249 253 260 271 282 288 291 291 290 288 286 276 268 260 255 256 246 256 253 244 234 226 220 220 222 223
328 328 323 303 277 218 213 230 214 190 180 185 183 226 223 222 219 220 220 227 238 248 251 259 276 283 290 292 299 303 299 287 270 255 253 261 251 253 250 242 230 225 224 224 223 223 221
334 336 327 291 215 184 207 214 186 187 183 178 187 201 207 222 217 218 217 222 235 242 251 264 274 285 294 301 320 313 302 285 265 250 250 254 259 248 243 238 231 219 215 217 216 221 221
338 340 331 267 209 191 211 187 175 176 173 183 198 202 214 210 211 216 213 219 231 239 249 262 277 288 296 314 319 358 319 344 354 306 274 271 254 227 226 222 217 213 207 212 210 215 221
342 342 328 259 229 191 169 173 169 183 166 187 191 197 185 200 212 207 209 220 227 238 250 265 275 286 300 297 295 16 355 338 330 242 263 248 241 243 231 233 200 199 209 210 208 200 203
344 343 331 289 215 175 154 184 172 160 170 187 196 194 207 214 211 209 212 219 224 234 249 262 275 287 287 283 302 331 286 298 286 267 265 239 240 211 161 184 201 205 203 201 201 198 185
345 344 320 220 157 165 174 169 171 167 172 186 191 186 198 206 210 209 213 219 218 231 245 254 267 281 266 284 294 42 7 345 228 223 223 214 166 121 130 194 153 161 191 197 201 200 194
346 343 296 195 161 176 161 159 168 172 180 183 195 202 200 199 203 210 210 210 219 231 236 247 267 281 256 234 125 67 310 190 255 313 354 18 16 13 13 249 207 189 205 193 205 205 204
346 345 246 178 162 166 167 165 174 180 181 197 190 197 189 197 207 209 210 208 219 225 228 240 258 265 251 220 204 200 187 58 47 32 12 37 63 100 135 141 147 157 194 198 193 209 188
344 346 187 177 171 180 181 178 179 183 191 186 190 204 205 211 218 206 212 214 222 226 226 233 251 245 246 238 199 219 189 116 22 24 95 89 105 108 139 122 165 135 173 169 156 170 155
340 222 190 181 185 184 175 180 191 188 182 173 184 189 202 201 212 209 213 216 222 223 230 239 236 236 237 225 218 198 197 235 304 109 109 106 110 120 123 125 126 118 132 129 133 138 139
341 216 185 189 186 182 183 190 186 174 177 194 201 206 206 214 207 208 207 212 217 221 227 236 238 235 245 230 209 209 215 217 220 204 133 151 135 127 121 121 126 126 133 156 166 173 174
340 221 202 203 201 190 195 196 188 188 183 189 199 201 209 199 209 207 209 218 226 225 223 226 248 249 227 229 218 219 214 201 187 202 165 158 142 146 139 135 135 141 155 168 174 193 204
336 225 206 203 196 196 181 177 175 187 198 196 209 213 201 201 206 206 208 216 226 222 215 241 246 225 225 217 216 213 222 207 195 201 219 193 191 198 186 186 188 179 182 197 205 214 220
334 229 204 206 194 192 195 189 193 195 180 194 203 215 215 212 205 206 212 216 222 205 237 234 250 217 213 214 220 220 222 225 205 211 217 223 216 204 204 218 219 217 223 222 228 234 233
332 238 202 201 198 197 198 200 197 195 193 193 215 216 205 204 202 205 212 214 220 213 246 228 235 214 207 208 216 216 209 211 203 202 202 204 205 209 213 210 218 230 240 235 232 234 235